Location: Bailleul
(50.3375°N, 2.8513°E)
Time: 13:33:52
(UTC+00:00)

Terra - Pass Details

Date: 04 August 2021
Orbit: 701 x 703 km, 98.2° (Epoch: 28 September)

Event Time Altitude Azimuth Distance (km) Brightness Sun altitude
Exits shadow 21:49:44 26° 182° (S) 1,370 2.8 -17.3°
Maximum altitude 21:52:22 66° 258° (WSW) 772 2.0 -17.5°
Drops below altitude 10° 21:57:08 10° 341° (NNW) 2,184 5.6 -17.9°
Sets 21:59:25 0° 344° (NNW) 3,107 6.7 -18.1°
